Regional Weather Roundup
Issued by NWS

Home | Current Version | Previous Version | Text Only | Print | Product List | Glossary On
Versions: 1 2 3 4 5 6 7 8 9 10 11 12 13 14 15 16 17 18 19 20 21 22 23 24 25 26 27
000
ASUS45 KBOI 260310
RWRID

IDAHO REGIONAL WEATHER ROUNDUP
NATIONAL WEATHER SERVICE BOISE ID
800 PM MST SUN FEB 25 2018

NOTE: "FAIR" INDICATES FEW OR NO CLOUDS BELOW 12000 FEET
WITH NO SIGNIFICANT WEATHER AND/OR OBSTRUCTIONS TO VISIBILITY

IDZ012-014-260400-
SOUTHWEST IDAHO


CITY           SKY/WX    TMP DP  RH WIND       PRES   REMARKS
BOISE          CLOUDY    35  25  66 SE18G28   29.88F WCI  24
CALDWELL       CLOUDY    35  27  72 E14G21    29.88S WCI  26
MOUNTAIN HOME  CLOUDY    31  31 100 E16       29.91F WCI  20
$$

IDZ016-017-260400-
SOUTHCENTRAL IDAHO


CITY           SKY/WX    TMP DP  RH WIND       PRES   REMARKS
BURLEY         CLOUDY    32  19  58 SW16      29.94F WCI  21
JEROME         FLURRIES  32  23  69 SE7       29.96F WCI  26
TWIN FALLS     CLOUDY    32  21  64 S15G24    29.94F WCI  22
$$

IDZ019>023-260400-
SOUTHEAST IDAHO


CITY           SKY/WX    TMP DP  RH WIND       PRES   REMARKS
IDAHO FALLS    CLOUDY    25  16  68 S14       29.96F WCI  13
POCATELLO      CLOUDY    29  14  53 S23G30    29.98F WCI  15
REXBURG        FLURRIES  23  17  78 S17G26    29.94S WCI   9
$$

IDZ006-010-011-018-031-032-260400-
CENTRAL IDAHO MOUNTAINS


CITY           SKY/WX    TMP DP  RH WIND       PRES   REMARKS
MCCALL         SNOW      26  23  88 S13       29.71F VSB 1/2 WCI  15
HAILEY         SNOW      23  21  93 SE13      29.92F VSB 1/2 WCI  11
STANLEY          N/A     22  17  81 S13       29.75F WCI  10
SALMON         CLOUDY    36  15  42 SW15G22   29.71F WCI  27
CHALLIS        CLOUDY    32  12  43 SE14G22   29.73F WCI  22
$$

IDZ002-004-006-007-026-260400-
NORTHERN IDAHO


CITY           SKY/WX    TMP DP  RH WIND       PRES   REMARKS
LEWISTON       CLOUDY    38  32  79 S10       29.74S WCI  31
LOWELL           N/A     33  31  92 CALM      29.78R
COEUR D`ALENE  CLOUDY    33  27  78 W9        29.62R WCI  25
MULLAN PASS    SNOW      22  17  81 MISG      29.49R VSB 1/2
$$




USA.gov is the U.S. government's official web portal to all federal, state and local government web resources and services.